CW8198 Weather Reports


Display with metric or nautical units.
time (UTC)temp
F
wind
direction
speed
MPH
gust
MPH
rain 1hr
in
rain 24hr
in
rain mn
in
humidity
%
barometer
mb
20260904232246 94 221 2.0 4.0 0.00 0.00 0.00 57 1011.4
20260904231746 94 221 1.0 5.0 0.00 0.00 0.00 57 1011.4
20260904231245 94 205 3.0 8.0 0.00 0.00 0.00 56 1011.5
20260904230745 95 238 4.0 8.0 0.00 0.00 0.00 55 1011.5
20260904230246 96 255 4.0 6.0 0.00 0.00 0.00 57 1011.5
20260904225745 95 257 3.0 6.0 0.00 0.00 0.00 56 1011.4
20260904225245 95 232 3.0 6.0 0.00 0.00 0.00 56 1011.4
20260904224744 95 245 2.0 7.0 0.00 0.00 0.00 61 1011.4
20260904223744 94 221 4.0 7.0 0.00 0.00 0.00 57 1011.5
20260904223244 94 205 3.0 7.0 0.00 0.00 0.00 61 1011.4
20260904222744 94 225 5.0 7.0 0.00 0.00 0.00 58 1011.4
20260904222243 94 238 3.0 9.0 0.00 0.00 0.00 57 1011.4
20260904221743 95 232 5.0 9.0 0.00 0.00 0.00 56 1011.4
20260904221243 95 207 4.0 10.0 0.00 0.00 0.00 55 1011.4
20260904220745 96 200 4.0 10.0 0.00 0.00 0.00 54 1011.4
20260904215742 96 254 6.0 9.0 0.00 0.00 0.00 56 1011.3
20260904215242 96 168 3.0 9.0 0.00 0.00 0.00 56 1011.3
20260904214742 96 208 4.0 10.0 0.00 0.00 0.00 54 1011.3
20260904214243 96 236 4.0 10.0 0.00 0.00 0.00 55 1011.4
20260904213742 95 212 4.0 9.0 0.00 0.00 0.00 53 1011.3
20260904213242 95 201 4.0 9.0 0.00 0.00 0.00 55 1011.4
20260904212241 96 209 6.0 12.0 0.00 0.00 0.00 55 1011.3
20260904211240 95 221 5.0 11.0 0.00 0.00 0.00 55 1011.3
20260904210239 95 140 4.0 10.0 0.00 0.00 0.00 53 1011.3
20260904205739 95 196 6.0 10.0 0.00 0.00 0.00 52 1011.4
20260904205239 95 146 5.0 10.0 0.00 0.00 0.00 54 1011.3
20260904204739 95 216 4.0 8.0 0.00 0.00 0.00 53 1011.3
20260904204239 95 238 4.0 8.0 0.00 0.00 0.00 54 1011.2
20260904203739 96 196 4.0 8.0 0.00 0.00 0.00 54 1011.3
20260904202738 95 178 3.0 9.0 0.00 0.00 0.00 55 1011.3
20260904202237 95 178 4.0 10.0 0.00 0.00 0.00 54 1011.4
20260904201738 95 212 6.0 10.0 0.00 0.00 0.00 54 1011.4
20260904201239 95 202 5.0 9.0 0.00 0.00 0.00 56 1011.4
20260904200738 94 221 5.0 10.0 0.00 0.00 0.00 58 1011.4
20260904200238 94 193 5.0 11.0 0.00 0.00 0.00 60 1011.5
20260904195737 94 221 5.0 11.0 0.00 0.00 0.00 55 1011.4
20260904195237 94 231 4.0 10.0 0.00 0.00 0.00 57 1011.5
20260904194236 94 144 3.0 8.0 0.00 0.00 0.00 58 1011.5
20260904193736 94 210 4.0 11.0 0.00 0.00 0.00 58 1011.6
20260904193236 94 230 5.0 11.0 0.00 0.00 0.00 57 1011.6
20260904192736 94 182 3.0 8.0 0.00 0.00 0.00 60 1011.6
20260904192236 94 227 3.0 9.0 0.00 0.00 0.00 61 1011.6
20260904191736 93 273 5.0 9.0 0.00 0.00 0.00 58 1011.6
20260904191237 93 238 5.0 8.0 0.00 0.00 0.00 57 1011.6
20260904190736 93 247 3.0 10.0 0.00 0.00 0.00 59 1011.6
20260904185736 93 140 4.0 8.0 0.00 0.00 0.00 60 1011.6
20260904185235 93 231 3.0 5.0 0.00 0.00 0.00 62 1011.6
20260904184735 92 209 2.0 6.0 0.00 0.00 0.00 65 1011.7
20260904184235 92 205 3.0 9.0 0.00 0.00 0.00 60 1011.8
20260904183235 91 228 2.0 9.0 0.00 0.00 0.00 63 1011.9
20260904182735 91 189 5.0 9.0 0.00 0.00 0.00 68 1011.9
20260904182234 91 208 4.0 7.0 0.00 0.00 0.00 67 1011.8
20260904181734 90 173 2.0 7.0 0.00 0.00 0.00 66 1011.9
20260904181235 89 168 4.0 11.0 0.00 0.00 0.00 65 1011.9
20260904180734 89 259 5.0 11.0 0.00 0.00 0.00 70 1011.8
20260904180233 89 250 5.0 11.0 0.00 0.00 0.00 69 1011.8
20260904173732 89 238 2.0 6.0 0.00 0.00 0.00 69 1011.9
20260904173232 89 223 4.0 8.0 0.00 0.00 0.00 67 1012.0
20260904172732 89 280 4.0 9.0 0.00 0.00 0.00 66 1012.0
20260904172231 90 236 5.0 11.0 0.00 0.00 0.00 65 1012.0
20260904171733 90 211 6.0 11.0 0.00 0.00 0.00 64 1012.0
20260904171229 89 243 4.0 8.0 0.00 0.00 0.00 65 1012.0
20260904170730 89 227 5.0 11.0 0.00 0.00 0.00 64 1012.1
20260904170230 89 221 5.0 11.0 0.00 0.00 0.00 64 1012.0
20260904165725 89 221 5.0 11.0 0.00 0.00 0.00 62 1011.9
20260904165224 89 271 6.0 11.0 0.00 0.00 0.00 66 1011.9
20260904164724 89 265 5.0 12.0 0.00 0.00 0.00 68 1011.9
20260904164224 89 208 7.0 12.0 0.00 0.00 0.00 63 1012.0
20260904163721 89 270 4.0 10.0 0.00 0.00 0.00 68 1012.1
20260904163221 88 246 4.0 10.0 0.00 0.00 0.00 66 1012.0
20260904162721 88 225 5.0 11.0 0.00 0.00 0.00 69 1012.0
20260904162220 87 232 5.0 11.0 0.00 0.00 0.00 67 1011.9
20260904161722 87 227 4.0 9.0 0.00 0.00 0.00 67 1011.9
20260904161221 87 232 4.0 11.0 0.00 0.00 0.00 66 1012.1
20260904160721 88 229 6.0 11.0 0.00 0.00 0.00 62 1012.1
20260904160220 88 265 4.0 10.0 0.00 0.00 0.00 69 1012.1
20260904155219 87 265 5.0 12.0 0.00 0.00 0.00 68 1012.1
20260904154720 87 232 7.0 13.0 0.00 0.00 0.00 66 1012.0
20260904154220 87 254 5.0 13.0 0.00 0.00 0.00 67 1012.0
20260904153720 87 261 5.0 12.0 0.00 0.00 0.00 69 1012.0
20260904153219 86 267 7.0 14.0 0.00 0.00 0.00 69 1012.1
20260904152219 86 205 6.0 14.0 0.00 0.00 0.00 67 1012.0
20260904151720 85 230 5.0 15.0 0.00 0.00 0.00 69 1012.1
20260904151220 86 221 6.0 15.0 0.00 0.00 0.00 67 1012.0
20260904150719 85 265 5.0 11.0 0.00 0.00 0.00 69 1012.1
20260904150219 85 215 5.0 10.0 0.00 0.00 0.00 69 1012.0
20260904144719 84 211 6.0 12.0 0.00 0.00 0.00 69 1012.0
20260904144218 84 230 4.0 12.0 0.00 0.00 0.00 73 1012.0
20260904143718 83 219 5.0 10.0 0.00 0.00 0.00 70 1012.0
20260904143218 83 257 4.0 9.0 0.00 0.00 0.00 71 1012.0
20260904142718 83 221 6.0 9.0 0.00 0.00 0.00 70 1011.9
20260904141719 83 184 4.0 8.0 0.00 0.00 0.00 71 1012.0
20260904141217 83 232 3.0 8.0 0.00 0.00 0.00 72 1012.1
20260904140717 83 213 3.0 8.0 0.00 0.01 0.00 73 1012.1
20260904140218 82 202 4.0 7.0 0.00 0.01 0.00 72 1012.1
20260904134717 82 234 4.0 8.0 0.00 0.01 0.00 74 1011.9
20260904133215 81 221 4.0 6.0 0.00 0.01 0.00 75 1011.8
20260904132714 80 178 2.0 5.0 0.00 0.01 0.00 76 1011.7
20260904132214 80 186 2.0 5.0 0.00 0.01 0.00 76 1011.6
20260904131715 80 144 2.0 6.0 0.00 0.01 0.00 77 1011.6
20260904131213 80 196 3.0 6.0 0.00 0.01 0.00 77 1011.5
20260904130713 79 187 2.0 5.0 0.00 0.01 0.00 78 1011.4
20260904130214 79 162 2.0 4.0 0.00 0.01 0.00 79 1011.4
20260904125713 78 153 2.0 4.0 0.00 0.01 0.00 79 1011.3
20260904125213 78 141 2.0 4.0 0.00 0.01 0.00 79 1011.3
20260904123713 77 146 1.0 4.0 0.00 0.04 0.00 79 1011.2
20260904122712 77 196 2.0 5.0 0.00 0.06 0.00 79 1011.1
20260904122212 77 144 1.0 6.0 0.00 0.07 0.00 79 1011.1
20260904121212 77 162 3.0 5.0 0.00 0.07 0.00 79 1011.0
20260904120713 77 178 2.0 6.0 0.00 0.07 0.00 79 1011.0
20260904120213 77 185 2.0 6.0 0.00 0.07 0.00 79 1011.0
20260904115712 77 153 2.0 6.0 0.00 0.07 0.00 79 1010.9
20260904115212 77 205 2.0 6.0 0.00 0.07 0.00 78 1011.0
20260904114712 78 123 3.0 6.0 0.00 0.07 0.00 78 1010.9
20260904113712 78 178 2.0 5.0 0.00 0.07 0.00 77 1010.9
20260904113212 78 178 3.0 5.0 0.00 0.07 0.00 77 1010.9
20260904112712 78 137 2.0 5.0 0.00 0.07 0.00 77 1010.9
20260904112212 78 168 2.0 6.0 0.00 0.07 0.00 76 1011.0
20260904111713 78 190 2.0 6.0 0.00 0.07 0.00 76 1010.9
20260904111212 78 119 2.0 5.0 0.00 0.07 0.00 76 1011.0
20260904110711 78 202 2.0 5.0 0.00 0.07 0.00 76 1011.0
20260904110211 79 173 2.0 6.0 0.00 0.07 0.00 75 1010.9
20260904105211 79 178 2.0 8.0 0.00 0.07 0.00 74 1010.9
20260904104711 79 141 2.0 8.0 0.00 0.07 0.00 74 1010.8
20260904104210 79 196 4.0 8.0 0.00 0.07 0.00 74 1010.8
20260904103710 79 163 3.0 7.0 0.00 0.07 0.00 74 1010.8
20260904101709 80 178 3.0 6.0 0.00 0.07 0.00 72 1010.8
20260904101210 80 190 3.0 10.0 0.00 0.07 0.00 71 1010.9
20260904100710 80 178 5.0 10.0 0.00 0.07 0.00 71 1010.9
20260904100209 80 147 5.0 9.0 0.00 0.07 0.00 71 1010.8
20260904095709 81 166 4.0 9.0 0.00 0.07 0.00 71 1010.8
20260904095209 81 187 4.0 10.0 0.00 0.07 0.00 71 1010.8
20260904093709 81 201 7.0 15.0 0.00 0.07 0.00 71 1010.6
20260904093208 81 171 3.0 11.0 0.00 0.07 0.00 71 1010.6
20260904092708 82 192 5.0 13.0 0.00 0.07 0.00 69 1010.6
20260904092210 82 198 5.0 15.0 0.00 0.07 0.00 69 1010.5
20260904091708 82 209 6.0 15.0 0.00 0.07 0.00 68 1010.4
20260904091209 83 165 5.0 14.0 0.00 0.07 0.00 68 1010.5
20260904090709 83 85 6.0 14.0 0.00 0.07 0.00 68 1010.4
20260904090208 82 226 6.0 14.0 0.00 0.07 0.00 69 1010.3
20260904085708 82 207 8.0 14.0 0.00 0.07 0.00 70 1010.3
20260904085208 81 215 6.0 13.0 0.00 0.07 0.00 70 1010.2
20260904084708 81 198 6.0 11.0 0.00 0.07 0.00 70 1010.2
20260904084208 81 135 6.0 13.0 0.00 0.07 0.00 69 1010.3
20260904083707 82 196 5.0 15.0 0.00 0.07 0.00 69 1010.3
20260904083209 82 221 7.0 15.0 0.00 0.07 0.00 69 1010.2
20260904082707 82 211 7.0 13.0 0.00 0.07 0.00 68 1010.2
20260904082210 81 131 6.0 16.0 0.00 0.07 0.00 68 1010.2
20260904081708 81 178 6.0 16.0 0.00 0.07 0.00 68 1010.0
20260904081208 81 173 6.0 15.0 0.00 0.07 0.00 69 1010.0
20260904080707 81 198 7.0 15.0 0.00 0.07 0.00 69 1010.0
20260904080207 81 196 8.0 16.0 0.00 0.07 0.00 69 1010.0
20260904075707 81 193 8.0 16.0 0.00 0.07 0.00 68 1010.2
20260904075207 82 198 9.0 16.0 0.00 0.07 0.00 67 1010.2
20260904074707 82 169 8.0 17.0 0.00 0.07 0.00 66 1010.2
20260904074207 83 141 8.0 17.0 0.00 0.07 0.00 65 1010.3
20260904073707 83 218 6.0 13.0 0.00 0.07 0.00 64 1010.3
20260904073206 83 238 7.0 12.0 0.00 0.07 0.00 65 1010.3
20260904072706 83 221 5.0 12.0 0.00 0.07 0.00 64 1010.0
20260904072208 83 193 6.0 13.0 0.00 0.07 0.00 64 1010.2
20260904071706 83 205 4.0 13.0 0.00 0.07 0.00 64 1010.2
20260904071206 83 231 6.0 14.0 0.00 0.07 0.00 64 1010.3
20260904070206 83 147 6.0 11.0 0.00 0.07 0.00 63 1010.2
20260904065706 83 221 5.0 15.0 0.00 0.07 0.00 63 1010.2
20260904065206 83 226 4.0 15.0 0.00 0.07 0.00 63 1010.3
20260904064706 83 189 4.0 11.0 0.00 0.07 0.00 63 1010.3
20260904064205 83 196 5.0 13.0 0.00 0.07 0.00 63 1010.3
20260904063705 83 147 5.0 13.0 0.00 0.07 0.00 63 1010.3
20260904063205 83 146 4.0 12.0 0.00 0.07 0.00 63 1010.2
20260904062705 83 202 4.0 12.0 0.00 0.07 0.00 63 1010.3
20260904062206 83 61 5.0 10.0 0.00 0.07 0.00 63 1010.3
20260904061705 83 178 5.0 9.0 0.00 0.07 0.00 63 1010.2
20260904061205 83 147 5.0 13.0 0.00 0.07 0.00 62 1010.0
20260904060705 84 137 6.0 13.0 0.00 0.07 0.00 62 1010.0
20260904060204 84 168 6.0 12.0 0.00 0.07 0.00 62 1010.2
20260904055704 84 218 6.0 13.0 0.00 0.07 0.00 62 1010.2
20260904055204 84 165 7.0 13.0 0.00 0.07 0.00 62 1010.2
20260904054204 84 163 7.0 12.0 0.00 0.07 0.00 62 1010.0
20260904053704 84 173 5.0 10.0 0.00 0.07 0.00 62 1010.0
20260904052703 84 211 5.0 13.0 0.00 0.07 0.00 62 1009.9
20260904052204 84 175 4.0 13.0 0.00 0.07 0.00 63 1009.8
20260904051203 84 135 4.0 12.0 0.00 0.07 0.00 63 1009.8
20260904050700 84 178 4.0 16.0 0.00 0.07 0.00 63 1009.8
20260904050200 84 178 6.0 16.0 0.00 0.07 0.00 62 1009.8
20260904045701 84 183 4.0 13.0 0.00 0.07 0.07 62 1009.8
20260904044700 84 182 5.0 9.0 0.00 0.07 0.07 62 1009.7
20260904043700 85 123 6.0 11.0 0.00 0.07 0.07 63 1009.7
20260904043200 85 225 5.0 12.0 0.00 0.07 0.07 62 1009.7
20260904042200 85 170 5.0 12.0 0.00 0.07 0.07 62 1009.7
20260904041700 85 128 4.0 12.0 0.00 0.07 0.07 62 1009.7
20260904040659 85 132 5.0 10.0 0.00 0.07 0.07 62 1009.8
20260904040159 85 153 5.0 13.0 0.00 0.07 0.07 62 1009.8
20260904034659 85 185 4.0 14.0 0.00 0.07 0.07 62 1009.8
20260904033157 86 221 5.0 10.0 0.00 0.07 0.07 62 1009.8
20260904032657 86 153 5.0 11.0 0.00 0.07 0.07 62 1009.7
20260904031155 86 144 5.0 11.0 0.00 0.07 0.07 61 1009.7
20260904030156 86 158 6.0 13.0 0.00 0.07 0.07 61 1009.6
20260904025655 86 173 4.0 12.0 0.00 0.07 0.07 62 1009.6
20260904024655 86 123 4.0 9.0 0.00 0.07 0.07 62 1009.6
20260904024153 87 178 4.0 10.0 0.00 0.07 0.07 62 1009.6
20260904023153 87 147 4.0 12.0 0.00 0.07 0.07 61 1009.5
20260904022653 87 178 4.0 12.0 0.00 0.07 0.07 61 1009.5
20260904022155 87 187 5.0 11.0 0.00 0.07 0.07 61 1009.5
20260904021653 87 124 5.0 10.0 0.00 0.07 0.07 61 1009.5
20260904021153 87 141 5.0 10.0 0.00 0.07 0.07 61 1009.4
20260904020653 87 177 4.0 10.0 0.00 0.07 0.07 61 1009.3
20260904015653 88 177 3.0 10.0 0.00 0.07 0.07 60 1009.4
20260904014652 88 148 3.0 11.0 0.00 0.07 0.07 59 1009.3
20260904014152 88 188 4.0 11.0 0.00 0.07 0.07 59 1009.1
20260904013651 88 142 4.0 9.0 0.00 0.07 0.07 59 1009.1
20260904013152 89 165 4.0 10.0 0.00 0.07 0.07 59 1009.0
20260904012152 89 178 3.0 12.0 0.00 0.07 0.07 58 1009.0
20260904011651 89 153 3.0 12.0 0.00 0.07 0.07 58 1008.9
20260904011151 89 144 4.0 14.0 0.00 0.07 0.07 58 1008.8
20260904010650 90 131 5.0 14.0 0.00 0.07 0.07 58 1008.7
20260904010150 90 128 4.0 12.0 0.00 0.07 0.07 58 1008.7
20260904005650 90 178 6.0 11.0 0.00 0.07 0.07 58 1008.7
20260904005151 90 146 5.0 11.0 0.00 0.07 0.07 58 1008.7
20260904004150 91 140 3.0 9.0 0.00 0.07 0.07 57 1008.5
20260904003650 91 210 3.0 12.0 0.00 0.07 0.07 56 1008.4
20260904003149 91 138 4.0 12.0 0.00 0.07 0.07 56 1008.4
20260904002650 92 212 4.0 10.0 0.00 0.07 0.07 55 1008.4
20260904001649 92 175 6.0 12.0 0.00 0.07 0.07 54 1008.4
20260904001149 92 166 5.0 12.0 0.00 0.07 0.07 54 1008.3
20260904000650 92 138 5.0 12.0 0.00 0.07 0.07 54 1008.4
20260903235649 93 162 7.0 16.0 0.00 0.07 0.07 53 1008.3
20260903235149 93 187 4.0 12.0 0.00 0.07 0.07 53 1008.3
20260903234648 93 165 7.0 16.0 0.00 0.07 0.07 52 1008.3
20260903234148 93 178 8.0 16.0 0.00 0.07 0.07 52 1008.3
20260903233148 94 163 7.0 13.0 0.00 0.07 0.07 52 1008.2
20260903232648 94 171 4.0 10.0 0.00 0.07 0.07 53 1008.3